NOAA 16 DEB, 41049

Orbit data source: Space-Track

NOAA 16 DEB, 41049 is space debris in SSO originally from a launch on Thu, 21 Sep 2000 UTC launched from the Air Force Western Test Range (AFWTR). Debris objects in space refer to the collection of defunct objects orbiting the Earth. Examples of debris include non-operational satellites, rocket bodies, and fragments generated from explosions, collisions, or faulty payload assembly.

Loading next visibility...
Identifier
41049, 2000-055G
Orbit
SSO
Country
Flag of USUS
Related business
Manufacturer
Unknown
Mission
Spacecraft
Bus & Motor
Unknown
Mass
Unknown
Launch date (UTC)
2000-09-21 (25 years ago)
Launch vehicle
Unknown
Launch site
Air Force Western Test Range (AFWTR)
Object type
Payload
Rocket body
Debris
Shape & HBR
Unknown shape, 0.2 m
Radar Cross Section
Small (<0.1 m²)

Expand to show TLE details & history
Last TLE update: 12 hours ago

TLE from 12 hours ago
0 NOAA 16 DEB
1 41049U 00055G   26071.76163702  .00003300  00000-0  13804-2 0  9990
2 41049  98.6369 134.9852 0007749 108.4052 251.7972 14.26741123531935
Epoch: 2026-03-12T18:16Z
TLE epoch observation values (Epoch: 2026-03-12T18:16:45.438Z)
Latitude
0.00002°
Longitude
50.38899°
Altitude
807.313 km
Speed
7.449 km/s
True Right ascension
08h 59m 56s
True Declination
0° 00' 00"
Sunlit
Object was in full shadow at epoch
Visualization orbit readout
Latitude
Unknown
Longitude
Unknown
Altitude
Unknown
Speed
Unknown
Apparent Right ascension
Unknown
Apparent Declination
Unknown
Sunlit
N/A
Visualization observer readout
Local Sidereal Time
10:31:35
Azimuth
Unknown
Elevation
Unknown
Doppler factor
Unknown
Orbital elements
Apogee altitude
805.353 km
Perigee altitude
794.229 km
Semi-major axis
7,177.928 km
Eccentricity
0.00077
Inclination
98.6369°
RAAN
134.9852°
Arg. of periapsis
108.4052°
True anomaly
251.71287°
Mean anomaly
251.7972°
Eccentric anomaly
251.75503°
Mean motion
3.56898 °/min
Orbital period
100.87 mins
BSTAR
0.0013804
Loading maneuver chart data...
Computing Atmospheric mass density...
Loading historical data...
Loading historical data...
Loading historical data...
Loading historical data...
Loading historical data...
Loading historical data...
Loading historical data...

Documentation

Showing up to 5 results
|